Stations météo

Publicité
Lille, France (7015): Température de l'air & dewpoint: 17.06.2017 17:00:00 - 23.06.2017 17:00:00 (CEST)Lille, France (7015): Température de l'air 5cm: 17.06.2017 17:00:00 - 23.06.2017 17:00:00 (CEST)Lille, France (7015): Température de l'air -20cm & Température de l'air -100cm: 17.06.2017 17:00:00 - 23.06.2017 17:00:00 (CEST)Lille, France (7015): Vitesse du vent & gusts: 17.06.2017 17:00:00 - 23.06.2017 17:00:00 (CEST)Lille, France (7015): Direction du vent: 17.06.2017 17:00:00 - 23.06.2017 17:00:00 (CEST)Lille, France (7015): reduced air pressure: 17.06.2017 17:00:00 - 23.06.2017 17:00:00 (CEST)Lille, France (7015): visibility: 17.06.2017 17:00:00 - 23.06.2017 17:00:00 (CEST)Lille, France (7015): Ensoleillement: 17.06.2017 17:00:00 - 23.06.2017 17:00:00 (CEST)Lille, France (7015): Quantités de précipitations: 17.06.2017 17:00:00 - 23.06.2017 17:00:00 (CEST)
Date & Time tt [°C] td [°C] tt 5cm [°C] tt -20cm [°C] tt -100cm [°C] ff [km/h] ff [knt] fx [km/h] fx [knt] dd ppp [hPa] vv [km] sd [min] rr [mm]
23.06.2017 17:00:00 21,4 11,7 25,4 23,6 17,8 32 17 49 27 WSW 1018,3 13 60 0,0
23.06.2017 16:00:00 21,3 11,9 24,8 23,2 17,8 31 17 50 27 WSW 1018,6 13 60 0,0
23.06.2017 15:00:00 20,5 11,4 24,5 22,6 17,8 30 16 47 25 WSW 1018,7 15 56 0,0
23.06.2017 14:00:00 21,6 11,3 22,8 22,2 17,8 25 14 42 23 WSW 1018,5 19 37 0,0
23.06.2017 13:00:00 20,3 12,0 22,4 21,8 17,8 24 13 40 22 WSW 1018,6 20 23 0,0
23.06.2017 12:00:00 19,8 11,8 20,9 21,5 17,7 26 14 42 23 WSW 1018,1 22 23 0,0
23.06.2017 11:00:00 19,0 12,0 20,7 21,3 17,7 24 13 38 20 WSW 1017,9 18 9 0,0
23.06.2017 10:00:00 19,1 13,1 20,5 21,1 17,7 23 12 36 19 WSW 1017,2 24 11 0,0
23.06.2017 09:00:00 19,0 13,6 19,7 21,0 17,7 25 13 41 22 WSW 1016,8 16 46 0,0
23.06.2017 08:00:00 16,7 14,2 15,6 21,1 17,7 12 6 20 11 WSW 1016,6 12 13 0,0
23.06.2017 07:00:00 15,2 13,6 14,3 21,3 17,7 11 6 15 8 WSW 1016,2 9 0 0,0
23.06.2017 06:00:00 14,5 13,2 13,6 21,5 17,7 6 4 11 6 SW 1015,8 8 0 0,0
23.06.2017 05:00:00 14,5 13,0 13,8 21,8 17,7 8 4 10 6 SW 1015,4 10 0 0,0
23.06.2017 04:00:00 15,0 13,0 14,4 22,1 17,7 8 4 11 6 WSW 1015,4 13 0 0,0
23.06.2017 03:00:00 15,4 13,2 15,0 22,4 17,7 7 4 15 8 W 1015,4 16 0 0,0
23.06.2017 02:00:00 15,8 13,1 15,2 22,8 17,7 9 5 16 9 WSW 1015,4 18 0 0,0
23.06.2017 01:00:00 16,2 12,9 15,5 23,2 17,7 10 5 17 9 SW 1015,1 19 0 0,0
23.06.2017 00:00:00 17,0 13,1 16,3 23,6 17,6 13 7 21 11 W 1015,1 20 0 0,0
22.06.2017 23:00:00 17,6 12,9 16,7 24,0 17,6 9 5 21 11 SW 1014,8 20 0 0,0
22.06.2017 22:00:00 18,7 12,9 18,2 24,4 17,6 14 8 41 22 WSW 1014,4 23 0 0,0
22.06.2017 21:00:00 19,7 12,7 19,8 24,8 17,6 22 12 43 23 W 1014,0 24 0 0,0
22.06.2017 20:00:00 20,6 12,6 20,9 25,1 17,6 33 18 52 28 W 1013,6 13 14 0,0
22.06.2017 19:00:00 22,3 12,3 23,5 25,3 17,5 32 17 49 26 W 1012,9 18 26 0,0
22.06.2017 18:00:00 22,7 13,2 24,0 25,5 17,6 35 19 50 27 W 1012,4 20 20 0,0
22.06.2017 17:00:00 23,8 14,8 23,8 25,5 17,5 32 17 48 26 WSW 1012,2 18 25 0,0
22.06.2017 16:00:00 22,4 14,8 24,0 25,5 17,5 29 16 48 26 WSW 1012,5 15 19 0,0
22.06.2017 15:00:00 26,7 16,9 29,4 25,2 17,5 32 18 47 25 WSW 1012,5 8 56 0,0
22.06.2017 14:00:00 29,2 18,0 32,2 24,6 17,5 28 15 41 22 WSW 1011,8 9 49 0,0
22.06.2017 13:00:00 29,5 15,2 33,2 24,1 17,5 21 12 35 19 WSW 1011,6 9 60 0,0
22.06.2017 12:00:00 29,9 17,0 33,0 23,5 17,4 23 12 37 20 WSW 1011,8 9 60 0,0
22.06.2017 11:00:00 28,4 17,9 30,7 23,1 17,4 13 7 21 11 SW 1011,8 9 60 0,0
22.06.2017 10:00:00 26,6 18,5 28,6 22,9 17,4 12 7 20 11 WSW 1012,2 8 60 0,0
22.06.2017 09:00:00 24,8 18,3 26,0 22,8 17,4 14 8 22 12 WSW 1012,4 7 60 0,0
22.06.2017 08:00:00 23,8 17,8 23,1 22,9 17,4 6 3 11 6 SW 1012,1 12 60 0,0
22.06.2017 07:00:00 22,7 17,6 18,6 23,1 17,4 6 3 8 4 WSW 1011,9 2,5 27 0,0
22.06.2017 06:00:00 21,1 17,1 17,3 23,4 17,4 2 1 4 2 SSW 1011,8 12 0 0,0
22.06.2017 05:00:00 22,1 16,8 18,5 23,7 17,4 2 1 9 5 SSW 1011,6 11 0 0,0
22.06.2017 04:00:00 22,5 17,0 21,5 24,1 17,4 7 4 9 5 SSE 1011,9 14 0 0,0
22.06.2017 03:00:00 24,2 17,0 22,7 24,4 17,3 6 3 13 7 SW 1012,4 15 0 0,0
22.06.2017 02:00:00 24,0 17,3 22,9 24,8 17,3 6 3 8 4 SE 1012,5 16 0 0,0
22.06.2017 01:00:00 25,0 17,0 24,0 25,2 17,3 6 3 9 5 SE 1012,8 18 0 0,0
22.06.2017 00:00:00 25,4 17,1 24,5 25,6 17,3 7 4 15 8 ESE 1012,9 20 0 0,0
21.06.2017 23:00:00 26,7 17,5 25,9 26,1 17,3 9 5 14 8 ESE 1013,0 19 0 0,0
21.06.2017 22:00:00 28,7 18,2 27,5 26,5 17,3 6 4 9 5 ESE 1012,8 20 4 0,0
21.06.2017 21:00:00 31,4 16,9 31,9 26,8 17,3 7 4 11 6 ESE 1012,7 20 56 0,0
21.06.2017 20:00:00 32,9 15,4 35,6 26,9 17,3 7 4 16 9 SE 1012,8 20 60 0,0
21.06.2017 19:00:00 33,6 15,6 35,7 26,8 17,2 6 3 16 9 ESE 1012,8 20 53 0,0
21.06.2017 18:00:00 33,5 15,5 38,3 26,6 17,3 8 4 19 11 E 1013,2 13 60 0,0
21.06.2017 17:00:00 33,2 15,7 37,5 26,1 17,2 7 4 18 10 ESE 1013,5 19 60 0,0
21.06.2017 16:00:00 32,6 15,1 36,1 25,6 17,2 13 7 26 14 SSE 1014,0 16 60 0,0
21.06.2017 15:00:00 32,2 15,2 36,1 24,9 17,2 12 7 21 12 S 1014,7 20 55 0,0
21.06.2017 14:00:00 31,4 16,6 36,0 24,0 17,2 11 6 23 12 ESE 1015,2 15 60 0,0
21.06.2017 13:00:00 30,4 16,8 35,0 23,3 17,2 8 5 21 11 E 1015,7 14 60 0,0
21.06.2017 12:00:00 28,7 18,2 32,9 22,7 17,2 9 5 17 9 E 1015,8 13 60 0,0
21.06.2017 11:00:00 26,4 17,7 30,2 22,2 17,2 9 5 17 9 E 1016,3 11 60 0,0
21.06.2017 10:00:00 24,9 17,4 26,5 22,0 17,2 10 5 15 8 E 1016,3 10 60 0,0
21.06.2017 09:00:00 22,7 16,5 23,1 22,0 17,2 10 6 19 11 E 1016,5 9 60 0,0
21.06.2017 08:00:00 21,2 16,4 20,5 22,1 17,1 11 6 18 10 E 1016,4 8 60 0,0
21.06.2017 07:00:00 20,2 16,2 19,3 22,3 17,1 8 4 13 7 ENE 1016,5 12 27 0,0
21.06.2017 06:00:00 19,7 16,2 19,1 22,6 17,1 10 5 16 9 NE 1016,5 13 0 0,0
21.06.2017 05:00:00 20,4 16,4 19,8 22,9 17,1 12 6 17 9 NE 1016,1 15 0 0,0
21.06.2017 04:00:00 21,4 16,4 20,8 23,1 17,1 10 6 15 8 NE 1016,5 19 0 0,0
21.06.2017 03:00:00 22,0 16,7 21,4 23,4 17,1 10 6 16 8 NE 1016,8 18 0 0,0
21.06.2017 02:00:00 22,6 17,3 21,9 23,8 17,1 11 6 16 9 NE 1016,9 17 0 0,0
21.06.2017 01:00:00 23,2 17,9 22,6 24,1 17,0 11 6 21 12 NE 1016,7 16 0 0,0
21.06.2017 00:00:00 24,4 17,6 23,8 24,5 17,1 17 9 24 13 NE 1016,7 19 0 0,0
20.06.2017 23:00:00 25,3 17,0 24,5 24,9 17,1 13 7 19 11 NE 1016,8 20 0 0,0
20.06.2017 22:00:00 26,6 15,9 25,8 25,3 17,0 14 7 27 15 NE 1016,5 30 0 0,0
20.06.2017 21:00:00 28,4 15,7 28,9 25,6 17,0 18 10 29 15 NE 1016,2 20 50 0,0
20.06.2017 20:00:00 29,7 14,7 31,5 25,8 17,0 17 9 28 15 NE 1015,9 19 60 0,0
20.06.2017 19:00:00 30,7 15,2 32,3 25,9 17,0 13 7 24 13 E 1015,9 18 35 0,0
20.06.2017 18:00:00 31,3 13,6 32,9 25,8 17,0 13 7 22 12 ENE 1015,8 12 43 0,0
20.06.2017 17:00:00 31,9 12,7 34,0 25,3 17,0 9 5 21 12 ENE 1016,0 19 55 0,0
20.06.2017 16:00:00 31,8 13,1 38,2 24,8 16,9 14 8 26 14 ENE 1016,2 18 60 0,0
20.06.2017 15:00:00 31,5 12,8 37,3 24,1 16,9 7 4 22 12 NE 1016,6 18 60 0,0
20.06.2017 14:00:00 30,7 13,0 35,5 23,4 16,9 11 6 22 12 NE 1016,7 19 60 0,0
20.06.2017 13:00:00 30,2 14,7 34,4 22,8 16,9 13 7 29 15 NE 1017,1 16 60 0,0
20.06.2017 12:00:00 28,9 13,2 33,0 22,2 16,9 15 8 24 13 NE 1017,4 16 57 0,0
20.06.2017 11:00:00 28,5 16,7 32,7 21,7 16,9 11 6 17 9 ENE 1017,3 16 60 0,0
20.06.2017 10:00:00 26,8 16,1 29,8 21,4 16,9 5 3 10 6 E 1017,1 13 60 0,0
20.06.2017 09:00:00 24,8 18,0 27,0 21,3 16,9 4 2 9 5 ESE 1017,1 9 60 0,0
20.06.2017 08:00:00 21,3 16,9 19,4 21,3 16,9 4 2 8 4 WNW 1017,0 4,9 60 0,0
20.06.2017 07:00:00 18,8 15,5 14,0 21,6 16,9 5 3 9 5 W 1016,7 3,8 37 0,0
20.06.2017 06:00:00 17,5 14,8 13,1 22,0 16,9 3 1 5 3 N 1016,4 4,4 0 0,0
20.06.2017 05:00:00 18,6 15,7 13,4 22,3 16,8 0 0 5 3 N 1016,5 5 0 0,0
20.06.2017 04:00:00 18,9 15,2 14,9 22,8 16,8 5 3 7 4 NW 1016,8 6 0 0,0
20.06.2017 03:00:00 20,5 15,9 16,1 23,2 16,8 0 0 8 4 N 1016,9 8 0 0,0
20.06.2017 02:00:00 21,6 15,9 19,1 23,6 16,8 3 2 13 7 NE 1017,1 10 0 0,0
20.06.2017 01:00:00 22,3 16,3 20,5 24,0 16,8 8 4 13 7 NNE 1017,1 14 0 0,0
20.06.2017 00:00:00 23,4 16,4 21,9 24,5 16,8 10 5 18 10 NNE 1016,9 15 0 0,0
19.06.2017 23:00:00 24,6 15,8 21,6 25,0 16,8 13 7 18 10 NNE 1016,9 26 0 0,0
19.06.2017 22:00:00 26,1 14,2 20,2 25,5 16,7 4 2 9 5 NE 1016,6 28 16 0,0
19.06.2017 21:00:00 29,5 10,6 30,4 25,9 16,8 6 3 10 5 ENE 1016,3 35 60 0,0
19.06.2017 20:00:00 30,3 11,3 32,1 26,1 16,8 5 3 11 6 ENE 1016,4 20 60 0,0
19.06.2017 19:00:00 30,8 11,2 34,6 26,0 16,7 6 3 17 9 E 1016,5 19 60 0,0
19.06.2017 18:00:00 31,2 11,1 36,3 25,8 16,7 8 5 16 9 ESE 1016,7 20 60 0,0
19.06.2017 17:00:00 31,5 12,3 36,6 25,3 16,7 7 4 16 8 SE 1016,9 19 60 0,0
19.06.2017 16:00:00 31,2 12,5 36,1 24,7 16,7 7 4 16 9 SE 1017,4 20 60 0,0
19.06.2017 15:00:00 30,4 10,9 36,5 23,9 16,7 8 4 20 11 NE 1017,8 20 60 0,0
19.06.2017 14:00:00 29,9 12,8 35,4 23,1 16,7 8 5 21 11 SSE 1018,3 20 60 0,0
19.06.2017 13:00:00 29,0 13,6 34,5 22,3 16,7 9 5 22 12 E 1019,0 20 60 0,0
19.06.2017 12:00:00 28,2 12,5 34,0 21,6 16,6 8 5 20 11 ESE 1019,3 40 60 0,0
19.06.2017 11:00:00 27,7 13,6 32,2 21,1 16,6 5 3 9 5 E 1019,4 20 60 0,0
19.06.2017 10:00:00 25,3 14,7 28,7 20,7 16,6 3 2 12 7 SE 1019,9 19 60 0,0
19.06.2017 09:00:00 23,3 15,1 25,5 20,6 16,6 5 3 9 5 SE 1020,2 17 60 0,0
19.06.2017 08:00:00 21,0 15,5 18,9 20,7 16,6 3 2 6 3 ESE 1020,2 12 60 0,0
19.06.2017 07:00:00 18,8 14,9 16,8 20,9 16,6 4 2 7 4 E 1020,4 6 46 0,0
19.06.2017 06:00:00 17,1 14,9 16,1 21,2 16,6 4 2 6 4 E 1020,4 3,5 0 0,0
19.06.2017 05:00:00 18,8 15,1 17,5 21,4 16,6 4 2 13 7 ENE 1020,4 4,7 0 0,0
19.06.2017 04:00:00 19,9 15,5 19,0 21,7 16,6 5 3 13 7 NE 1020,5 7 0 0,0
19.06.2017 03:00:00 20,7 15,7 19,1 22,0 16,6 11 6 16 9 NE 1020,6 10 0 0,0
19.06.2017 02:00:00 20,4 15,6 18,9 22,4 16,6 10 5 14 7 NNE 1021,1 16 0 0,0
19.06.2017 01:00:00 21,2 14,8 17,1 22,7 16,5 8 4 11 6 NNE 1021,5 20 0 0,0
19.06.2017 00:00:00 21,8 14,7 16,4 23,2 16,6 6 3 9 5 NE 1021,4 25 0 0,0
18.06.2017 23:00:00 23,6 14,6 22,0 23,7 16,6 7 4 8 5 ENE 1021,3 29 0 0,0
18.06.2017 22:00:00 24,7 14,8 23,4 24,1 16,5 9 5 12 7 E 1021,0 29 14 0,0
18.06.2017 21:00:00 26,9 14,6 27,6 24,4 16,6 9 5 17 9 ENE 1020,9 35 60 0,0
18.06.2017 20:00:00 27,8 14,4 30,6 24,5 16,5 14 8 28 15 ENE 1021,0 33 60 0,0
18.06.2017 19:00:00 28,6 14,4 32,2 24,4 16,5 13 7 24 13 ENE 1021,4 35 60 0,0
18.06.2017 18:00:00 28,7 13,8 33,7 24,1 16,5 17 9 31 17 ENE 1021,8 36 60 0,0
18.06.2017 17:00:00 28,4 13,5 31,9 23,8 16,5 11 6 27 15 ENE 1022,2 19 58 0,0
18.06.2017 16:00:00 28,3 14,5 31,8 23,2 16,5 13 7 29 16 NE 1022,5 25 60 0,0
18.06.2017 15:00:00 27,5 14,5 32,2 22,5 16,5 14 8 29 16 NE 1023,3 26 58 0,0
18.06.2017 14:00:00 26,8 14,5 30,0 21,8 16,5 17 9 31 17 NNE 1023,8 20 58 0,0
18.06.2017 13:00:00 26,4 14,8 31,1 21,1 16,5 12 7 24 13 ENE 1024,2 19 60 0,0
18.06.2017 12:00:00 26,0 15,7 30,6 20,4 16,5 10 6 24 13 ENE 1024,6 19 60 0,0
18.06.2017 11:00:00 24,9 14,4 28,7 19,9 16,5 5 3 13 7 NE 1025,0 18 60 0,0
18.06.2017 10:00:00 23,5 15,3 26,3 19,5 16,4 5 3 13 7 ESE 1025,2 18 60 0,0
18.06.2017 09:00:00 21,3 15,6 22,9 19,4 16,5 8 4 12 7 E 1025,4 11 60 0,0
18.06.2017 08:00:00 19,1 14,8 17,8 19,4 16,5 3 1 9 5 SE 1025,3 9 60 0,0
18.06.2017 07:00:00 17,3 14,2 14,7 19,6 16,4 8 4 9 5 ENE 1025,4 9 42 0,0
18.06.2017 06:00:00 15,3 13,3 14,0 19,8 16,5 6 3 7 4 ENE 1025,5 11 0 0,0
18.06.2017 05:00:00 15,4 13,2 11,1 20,1 16,4 5 3 6 3 E 1025,4 14 0 0,0
18.06.2017 04:00:00 15,5 13,0 11,3 20,5 16,4 4 2 5 3 ENE 1025,7 19 0 0,0
18.06.2017 03:00:00 16,8 13,1 12,2 20,8 16,4 0 0 5 3 N 1025,8 26 0 0,0
18.06.2017 02:00:00 18,1 13,4 13,7 21,2 16,4 4 2 8 4 ENE 1026,0 25 0 0,0
18.06.2017 01:00:00 19,6 13,5 17,6 21,6 16,4 6 3 9 5 ENE 1026,2 29 0 0,0
18.06.2017 00:00:00 20,0 13,5 18,5 21,9 16,4 9 5 13 7 NE 1026,5 32 0 0,0
17.06.2017 23:00:00 20,9 13,3 17,5 22,4 16,4 9 5 15 8 NE 1026,3 31 0 0,0
17.06.2017 22:00:00 22,4 13,5 20,7 22,7 16,4 8 4 22 12 NNE 1025,7 33 24 0,0
17.06.2017 21:00:00 24,2 14,3 25,8 23,0 16,4 13 7 22 12 N 1025,6 26 60 0,0
17.06.2017 20:00:00 25,5 14,6 29,7 23,0 16,4 14 8 23 12 N 1025,6 26 60 0,0
17.06.2017 19:00:00 26,7 14,5 29,5 22,9 16,4 12 7 23 12 NNW 1025,4 26 49 0,0
17.06.2017 18:00:00 25,9 13,7 28,2 22,6 16,4 10 5 27 15 N 1025,7 31 43 0,0
17.06.2017 17:00:00 26,4 14,2 30,2 22,2 16,4 10 5 28 15 NNE 1026,0 27 53 0,0

tt = Température de l'air
td = dewpoint
tt 5cm = Température de l'air 5cm
tt -20cm = Température de l'air -20cm
tt -100cm = Température de l'air -100cm
ff = Vitesse du vent
fx = gusts
dd = Direction du vent
ppp = reduced air pressure
vv = visibility
sd = Ensoleillement
rr = Quantités de précipitations

stations d'obs. à proximité